Home   Weather   Fort Nelson   Past weeks

Flag for Canada Past Weather in Fort Nelson, British Columbia, Canada — Yesterday and Last 2 Weeks

Now
59 °F

Passing clouds.


Feels Like: 60 °F
Forecast: 30 / 57 °F
Wind: 3 mph from Northwest

Location: Fort Nelson

Current Time: Apr 25, 2017 at 5:47:15 pm

Latest Report: Apr 25, 2017 at 5:00 pm


Visibility: 30 mi

Pressure: 29.72 "Hg

Humidity: 21%

Dew Point: 19 °F

Location of Fort NelsonLocation

Past Weather in Fort Nelson — Graph

°F

Fort Nelson Temperature Yesterday

Maximum temperature yesterday: 46 °F (at 3:00 pm)
Minimum temperature yesterday: 28 °F (at 6:00 am)
Average temperature yesterday: 39 °F

High & Low Weather Summary for the Past Weeks

 TemperatureHumidityPressure
High57 °F (Apr 25, 4:00 pm)100% (Apr 20, 10:00 pm)30.62 "Hg (Apr 20, 10:00 pm)
Low14 °F (Apr 18, 4:00 am)12% (Apr 13, 2:00 pm)29.74 "Hg (Apr 25, 4:00 pm)
Average33 °F60%30.21 "Hg
* Reported Apr 10 4:00 pm — Apr 25 4:00 pm, Fort Nelson, Weather by CustomWeather, © 2017

Note: Actual official high and low records may vary slightly from our data, if they occured in-between our weather recording intervals... More about our weather records

Advertising

Fort Nelson Weather History for the Previous 24 Hours

Scroll right to see more
 ConditionsComfort  
Time TempWeatherWind HumidityBarometerVisibility
4:00 pm
Tue, Apr 25
57 °FPassing clouds.8 mph23%29.74 "Hg30 mi
3:00 pm55 °FPassing clouds.7 mph24%29.76 "Hg30 mi
2:00 pm54 °FPassing clouds.3 mph26%29.79 "Hg30 mi
1:00 pm54 °FPassing clouds.12 mph28%29.80 "Hg30 mi
12:00 pm50 °FPassing clouds.6 mph40%29.82 "Hg30 mi
11:00 am46 °FPassing clouds.3 mph43%29.83 "Hg30 mi
10:00 am41 °FPassing clouds.5 mph53%29.85 "Hg30 mi
9:00 am37 °FPassing clouds.3 mph56%29.87 "Hg30 mi
8:00 am34 °FPassing clouds.6 mph65%29.88 "Hg20 mi
7:00 am30 °FScattered clouds.7 mph75%29.88 "Hg30 mi
6:00 am28 °FPassing clouds.3 mph80%29.88 "Hg30 mi
5:00 am30 °FPassing clouds.3 mph75%29.88 "Hg20 mi
4:00 am30 °FPassing clouds.3 mph75%29.89 "Hg15 mi
3:00 am32 °FClear.5 mph69%29.90 "Hg15 mi
2:00 am34 °FClear.5 mph65%29.90 "Hg15 mi
1:00 am36 °FClear.3 mph60%29.92 "Hg15 mi
12:00 am36 °FClear.3 mph60%29.93 "Hg15 mi
11:00 pm
Mon, Apr 24
39 °FPassing clouds.2 mph48%29.92 "Hg15 mi
10:00 pm41 °FPassing clouds.3 mph45%29.93 "Hg15 mi
9:00 pm41 °FPassing clouds.3 mph45%29.93 "Hg20 mi
8:00 pm45 °FScattered clouds.5 mph37%29.93 "Hg20 mi
7:00 pm46 °FBroken clouds.3 mph34%29.93 "Hg20 mi
6:00 pm46 °FBroken clouds.7 mph34%29.93 "Hg20 mi
5:00 pm46 °FBroken clouds.6 mph32%29.93 "Hg20 mi
Weather by CustomWeather, © 2017

See weather overviewHow to use our weather pages